EW5238 Weather Reports


time (UTC)temp
C
wind
direction
speed
KPH
gust
KPH
rain 1hr
cm
rain 24hr
cm
rain mn
cm
humidity
%
barometer
mb
20260502130358 12 190 1.6 8.0 0.00 2.84 0.00 1 1018.4
20260502123344 11 190 1.6 4.8 0.00 2.84 0.00 1 1017.9
20260502122844 11 190 1.6 6.4 0.00 2.84 0.00 1 1017.7
20260502122337 10 190 0.0 6.4 0.00 2.84 0.00 1 1017.7
20260502121834 -17 190 0.0 0.0 0.00 2.84 0.00 1017.6
20260502121255 -17 0.0 0.0 0.00 2.84 0.00 1017.6
20260502120748 -17 0.0 0.0 0.00 2.84 0.00 1017.5
20260502120159 -17 0.0 0.0 0.00 2.84 0.00 1017.3
20260502115658 -17 0.0 0.0 0.00 2.84 0.00 1017.3
20260502115423 -17 0.0 0.0 0.00 2.84 0.00 1017.3
20260502114658 -17 0.0 0.0 0.00 2.84 0.00 1017.2
20260502114150 -17 0.0 0.0 0.00 2.84 0.00 1017.2
20260502113558 -17 0.0 0.0 0.00 2.84 0.00 1017.2
20260502113058 -17 0.0 0.0 0.00 2.84 0.00 1017.2
20260502112551 -17 0.0 0.0 0.00 2.84 0.00 1017.0
20260502111957 -17 0.0 0.0 0.00 2.84 0.00 1016.9
20260502111449 -17 0.0 0.0 0.00 2.84 0.00 1016.8
20260502110858 -17 0.0 0.0 0.00 2.84 0.00 1016.7
20260502110358 -17 0.0 0.0 0.00 2.84 0.00 1016.7
20260502105854 -17 0.0 0.0 0.00 2.84 0.00 1016.6
20260502105348 -17 0.0 0.0 0.00 2.84 0.00 1016.5
20260502104754 -17 0.0 0.0 0.00 2.84 0.00 1016.4
20260502104250 -17 0.0 0.0 0.00 2.92 0.00 1016.3
20260502103745 -17 0.0 0.0 0.00 2.97 0.00 1016.3
20260502103152 10 0.0 0.0 0.00 3.02 0.00 1 1016.3
20260502102652 10 0.0 0.0 0.00 3.05 0.00 1 1016.2
20260502102140 10 190 0.0 0.0 0.00 3.05 0.00 1 1016.1
20260502101630 10 190 0.0 3.2 0.00 3.07 0.00 1 1016.1
20260502101106 10 190 0.0 4.8 0.00 3.10 0.00 1 1016.1
20260502100606 10 190 0.0 4.8 0.00 3.12 0.00 1 1016.2
20260502100338 10 190 0.0 6.4 0.00 3.12 0.00 1 1016.1
20260502091103 10 190 1.6 6.4 0.00 3.45 0.00 1 1015.5
20260502090557 10 190 3.2 4.8 0.00 3.51 0.00 1 1015.4
20260502071528 11 190 3.2 8.0 0.00 4.39 0.00 1 1014.7
20260502071300 11 190 1.6 8.0 0.00 4.39 0.00 1 1014.5
20260502070528 11 190 1.6 8.0 0.00 4.39 0.00 1 1014.6
20260502070023 11 190 1.6 6.4 0.00 4.39 0.00 1 1014.8
20260502065522 11 190 1.6 4.8 0.00 4.39 0.00 1 1014.8
20260502065019 11 190 3.2 9.7 0.00 4.39 0.00 1 1014.9
20260502064750 11 190 3.2 9.7 0.00 4.39 0.00 1 1014.9
20260502064017 11 190 3.2 6.4 0.00 4.39 0.00 1 1014.9
20260502063513 11 190 1.6 6.4 0.00 4.39 0.00 1 1015.1
20260502063011 11 190 1.6 4.8 0.00 4.39 0.00 1 1015.0
20260502062013 11 190 1.6 9.7 0.00 4.39 0.00 1 1015.1
20260502061743 11 190 3.2 9.7 0.00 4.39 0.00 1 1015.0
20260502061242 11 190 3.2 8.0 0.00 4.39 0.00 1 1015.1
20260502060509 11 190 3.2 8.0 0.00 4.39 0.00 1 1015.1
20260502060006 11 190 3.2 6.4 0.00 4.39 0.00 1 1015.2
20260502055508 11 190 1.6 6.4 0.00 4.39 0.00 1 1015.1
20260502055010 11 190 1.6 4.8 0.00 4.39 0.00 1 1015.0
20260502054506 11 190 1.6 6.4 0.00 4.42 0.00 1 1015.0
20260502054005 10 190 1.6 6.4 0.00 4.42 0.00 1 1015.0
20260502053501 10 190 1.6 9.7 0.00 4.42 0.00 1 1015.1
20260502053000 11 190 3.2 9.7 0.00 4.42 0.00 1 1015.0
20260502052459 11 190 3.2 11.3 0.00 4.42 0.00 1 1015.0
20260502052000 11 190 3.2 11.3 0.00 4.42 0.00 1 1014.9
20260502051459 11 190 3.2 11.3 0.00 4.42 0.00 1 1015.0
20260502050958 11 190 3.2 9.7 0.00 4.42 0.00 1 1015.1
20260502050222 11 190 3.2 14.5 0.00 4.42 4.42 1 1015.1
20260502045452 11 190 4.8 14.5 0.00 4.42 4.42 1 1014.9
20260502044951 11 190 3.2 11.3 0.00 4.42 4.42 1 1014.8
20260502044445 11 190 4.8 14.5 0.00 4.42 4.42 1 1014.9
20260502043945 11 190 4.8 14.5 0.00 4.42 4.42 1 1014.8
20260502043445 11 190 6.4 12.9 0.00 4.42 4.42 1 1014.7
20260502042946 11 190 4.8 14.5 0.00 4.42 4.42 1 1014.7
20260502042447 11 190 4.8 14.5 0.00 4.42 4.42 1 1014.7
20260502041949 11 190 4.8 14.5 0.00 4.42 4.42 1 1014.7
20260502041712 11 190 4.8 11.3 0.00 4.42 4.42 1 1014.7
20260502041214 12 190 4.8 16.1 0.00 4.42 4.42 1 1014.7
20260502040445 12 190 4.8 16.1 0.00 4.42 4.42 1 1014.6
20260502040214 12 190 4.8 14.5 0.00 4.42 4.42 1 1014.5
20260502035442 12 190 3.2 12.9 0.00 4.42 4.42 1 1014.5
20260502034943 12 190 3.2 8.0 0.00 4.42 4.42 1 1014.4
20260502034445 12 190 3.2 9.7 0.00 4.42 4.42 1 1014.4
20260502033946 12 190 3.2 9.7 0.00 4.42 4.42 1 1014.4
20260502033445 12 190 4.8 14.5 0.00 4.42 4.42 1 1014.3
20260502032947 12 190 4.8 14.5 0.00 4.42 4.42 1 1014.3
20260502032441 12 190 4.8 11.3 0.00 4.42 4.42 1 1014.3
20260502031940 12 190 4.8 14.5 0.00 4.42 4.42 1 1014.3
20260502031442 12 190 4.8 12.9 0.00 4.42 4.42 1 1014.3
20260502030934 12 190 4.8 12.9 0.00 4.42 4.42 1 1014.3
20260502030704 12 190 3.2 11.3 0.00 4.42 4.42 1 1014.2
20260502025927 12 190 3.2 11.3 0.00 4.42 4.42 1 1014.1
20260502025432 12 190 3.2 9.7 0.00 4.42 4.42 1 1014.0
20260502024927 12 190 3.2 14.5 0.00 4.42 4.42 1 1014.0
20260502024427 12 190 4.8 14.5 0.00 4.42 4.42 1 1014.0
20260502023930 12 190 4.8 9.7 0.00 4.42 4.42 1 1013.9
20260502023429 12 190 3.2 9.7 0.00 4.42 4.42 1 1014.1
20260502022921 12 190 3.2 8.0 0.00 4.42 4.42 1 1014.0
20260502022426 12 190 3.2 9.7 0.00 4.42 4.42 1 1013.9
20260502021921 12 190 3.2 14.5 0.00 4.42 4.42 1 1013.7
20260502021423 12 190 3.2 14.5 0.00 4.42 4.42 1 1013.5
20260502020917 12 190 4.8 11.3 0.00 4.42 4.42 1 1013.3
20260502020422 12 190 4.8 14.5 0.00 4.42 4.42 1 1013.1
20260502015914 12 190 4.8 14.5 0.00 4.42 4.42 1 1013.1
20260502015414 12 190 4.8 14.5 0.00 4.42 4.42 1 1012.9
20260502014912 12 190 4.8 14.5 0.00 4.42 4.42 1 1012.6
20260502014412 12 190 4.8 14.5 0.00 4.42 4.42 1 1012.2
20260502014150 12 190 3.2 12.9 0.00 4.42 4.42 1 1011.9
20260502013413 12 190 4.8 12.9 0.00 4.42 4.42 1 1011.7
20260502012913 12 190 4.8 12.9 0.03 4.42 4.42 1 1011.6
20260502012406 12 190 4.8 19.3 0.03 4.42 4.42 1 1011.5
20260502011907 12 190 4.8 19.3 0.05 4.42 4.42 1 1011.6
20260502011415 13 190 4.8 16.1 0.08 4.42 4.42 1 1011.7
20260502010907 13 190 4.8 11.3 0.08 4.42 4.42 1 1011.6
20260502010636 13 190 3.2 11.3 0.08 4.42 4.42 1 1011.7
20260502005905 13 190 3.2 11.3 0.10 4.42 4.42 1 1011.9
20260502005404 13 190 3.2 8.0 0.10 4.42 4.42 1 1012.3
20260502004859 13 190 4.8 16.1 0.13 4.42 4.42 1 1012.3
20260502004359 13 190 4.8 16.1 0.15 4.42 4.42 1 1012.2
20260502003900 13 190 4.8 12.9 0.18 4.42 4.42 1 1012.1
20260502003359 13 190 6.4 12.9 0.20 4.42 4.42 1 1011.9
20260502002901 13 190 4.8 14.5 0.18 4.39 4.39 1 1011.9
20260502002359 13 190 3.2 14.5 0.20 4.39 4.39 1 1011.6
20260502001853 13 190 3.2 11.3 0.20 4.37 4.37 1 1011.9
20260502001351 13 190 4.8 12.9 0.18 4.34 4.34 1 1011.8
20260502000853 13 190 4.8 14.5 0.20 4.34 4.34 1 1011.8
20260502000354 13 190 4.8 14.5 0.23 4.34 4.34 1 1011.9
20260501235854 14 190 3.2 12.9 0.25 4.32 4.32 1 1011.8
20260501234842 14 190 3.2 9.7 0.38 4.29 4.29 1 1011.8
20260501234350 14 190 3.2 9.7 0.46 4.27 4.27 1 1011.7
20260501233344 14 190 4.8 14.5 0.41 4.22 4.22 1 1011.4
20260501233119 14 190 4.8 12.9 0.41 4.22 4.22 1 1011.2
20260501232340 14 190 4.8 14.5 0.41 4.19 4.19 1 1011.1
20260501232112 14 190 3.2 14.5 0.38 4.17 4.17 1 1011.0
20260501231340 14 190 3.2 12.9 0.41 4.17 4.17 1 1010.9
20260501230838 14 190 4.8 12.9 0.38 4.14 4.14 1 1010.8
20260501230338 14 190 4.8 11.3 0.38 4.11 4.11 1 1010.6
20260501225839 14 190 4.8 14.5 0.38 4.06 4.06 1 1010.7
20260501225333 14 190 4.8 14.5 0.36 3.99 3.99 1 1010.5
20260501224835 14 190 4.8 12.9 0.28 3.91 3.91 1 1010.4
20260501224332 14 190 6.4 14.5 0.18 3.81 3.84 1 1010.2
20260501223832 14 190 6.4 14.5 0.18 3.81 3.81 1 1010.7
20260501223604 14 190 6.4 17.7 0.18 3.81 3.81 1 1010.1
20260501222837 14 190 6.4 17.7 0.20 3.81 3.81 1 1009.5
20260501222329 15 190 6.4 16.1 0.20 3.78 3.78 1 1009.1
20260501221829 15 190 6.4 14.5 0.25 3.78 3.78 1 1008.8
20260501221328 15 190 6.4 14.5 0.23 3.76 3.78 1 1008.7
20260501220828 15 190 4.8 11.3 0.23 3.76 3.76 1 1008.8
20260501220329 14 190 4.8 11.3 0.23 3.73 3.73 1 1008.6
20260501220056 14 190 4.8 11.3 0.20 3.68 3.68 1 1009.2
20260501215553 14 190 4.8 11.3 0.28 3.63 3.63 1 1009.2
20260501214820 14 190 4.8 19.3 0.33 3.63 3.63 1 1009.1
20260501214321 14 190 8.0 19.3 0.36 3.63 3.63 1 1008.3
20260501213821 14 190 6.4 17.7 0.38 3.63 3.63 1 1007.6
20260501213551 15 190 6.4 14.5 0.41 3.63 3.63 1 1007.7
20260501213052 15 190 6.4 17.7 0.41 3.61 3.61 1 1007.6
20260501212314 15 190 4.8 17.7 0.41 3.58 3.58 1 1007.9
20260501211817 15 190 4.8 14.5 0.38 3.53 3.53 1 1008.5
20260501211316 15 190 4.8 11.3 0.38 3.53 3.53 1 1008.7
20260501210814 15 190 4.8 11.3 0.41 3.53 3.53 1 1008.9
20260501210315 15 190 4.8 14.5 0.41 3.51 3.51 1 1008.8
20260501205816 15 190 4.8 14.5 0.43 3.48 3.48 1 1008.8
20260501205314 15 190 6.4 16.1 0.36 3.35 3.35 1 1007.9
20260501204818 15 190 6.4 16.1 0.36 3.30 3.30 1 1009.8
20260501204316 15 190 4.8 11.3 0.41 3.28 3.28 1 1009.9
20260501203812 15 190 3.2 9.7 0.48 3.25 3.25 1 1009.4
20260501203312 15 190 4.8 9.7 0.48 3.23 3.23 1 1009.2
20260501202814 15 190 6.4 16.1 0.46 3.20 3.20 1 1009.3
20260501202319 15 190 6.4 16.1 0.43 3.17 3.20 1 1009.0
20260501201819 15 190 4.8 11.3 0.43 3.15 3.17 1 1009.3
20260501201313 15 190 4.8 11.3 0.43 3.15 3.15 1 1009.3
20260501200812 15 190 4.8 12.9 0.43 3.12 3.12 1 1009.6
20260501200313 15 190 6.4 12.9 0.41 3.10 3.10 1 1008.2
20260501195806 15 190 6.4 12.9 0.38 3.05 3.05 1 1009.3
20260501195306 15 190 6.4 19.3 0.41 3.00 3.02 1 1008.7
20260501195032 15 190 6.4 19.3 0.53 2.95 2.97 1 1008.7
20260501194307 15 190 4.8 17.7 0.43 2.84 2.87 1 1008.4
20260501193805 15 190 6.4 17.7 0.36 2.77 2.77 1 1009.7
20260501193301 15 190 9.7 17.7 0.36 2.74 2.74 1 1009.4
20260501192811 15 190 6.4 16.1 0.36 2.74 2.74 1 1009.6
20260501192536 15 190 6.4 14.5 0.36 2.74 2.74 1 1009.1
20260501191756 16 190 6.4 14.5 0.33 2.72 2.72 1 1008.8
20260501191301 16 190 4.8 14.5 0.33 2.72 2.72 1 1008.6
20260501190800 16 190 4.8 14.5 0.30 2.69 2.69 1 1008.1
20260501190301 16 190 4.8 12.9 0.30 2.69 2.69 1 1008.2
20260501185802 16 190 4.8 14.5 0.28 2.67 2.69 1 1008.3
20260501185528 16 190 4.8 14.5 0.20 2.59 2.59 1 1008.4
20260501184752 16 190 4.8 11.3 0.03 2.41 2.41 1 1008.9
20260501184252 17 190 3.2 9.7 0.03 2.41 2.41 1 1009.6
20260501184024 17 190 3.2 9.7 0.03 2.41 2.41 1 1008.5
20260501183253 17 190 3.2 9.7 0.00 2.39 2.39 1 1008.4
20260501182752 17 190 3.2 9.7 0.00 2.39 2.39 1 1008.0
20260501182253 17 190 3.2 9.7 0.00 2.39 2.39 1 1008.3
20260501181753 17 190 3.2 9.7 0.00 2.39 2.39 1 1007.7
20260501181256 17 190 3.2 9.7 0.00 2.39 2.39 1 1007.7
20260501181021 17 190 1.6 11.3 0.03 2.39 2.39 1 1007.6
20260501180255 17 190 1.6 11.3 0.03 2.39 2.39 1 1007.5
20260501175751 17 190 3.2 11.3 0.05 2.39 2.39 1 1007.4
20260501175514 16 190 4.8 11.3 0.08 2.39 2.39 1 1007.7
20260501175013 16 190 4.8 14.5 0.10 2.39 2.39 1 1007.5
20260501174514 16 190 6.4 14.5 0.10 2.39 2.39 1 1007.4
20260501173741 16 190 8.0 17.7 0.13 2.39 2.39 1 1007.5
20260501173241 16 190 9.7 19.3 0.15 2.39 2.39 1 1007.0
20260501172741 16 190 9.7 20.9 0.18 2.39 2.39 1 1006.8
20260501172239 16 190 11.3 22.5 0.23 2.39 2.39 1 1007.2
20260501171740 15 190 11.3 27.4 0.23 2.39 2.39 1 1006.5
20260501171513 15 190 8.0 27.4 0.25 2.39 2.39 1 1006.7
20260501170745 15 190 6.4 14.5 0.23 2.36 2.36 1 1009.0
20260501170236 15 190 4.8 14.5 0.23 2.36 2.36 1 1009.3
20260501165734 15 190 3.2 8.0 0.23 2.34 2.34 1 1010.2
20260501165232 15 190 3.2 9.7 0.20 2.31 2.31 1 1011.1
20260501164733 15 190 4.8 12.9 0.20 2.29 2.29 1 1011.0
20260501164233 15 190 4.8 12.9 0.20 2.29 2.29 1 1010.9
20260501163736 15 190 4.8 12.9 0.18 2.26 2.26 1 1010.6
20260501163233 15 190 4.8 9.7 0.15 2.24 2.24 1 1010.6
20260501162728 15 190 3.2 11.3 0.15 2.21 2.21 1 1010.5
20260501162230 15 190 3.2 11.3 0.10 2.16 2.16 1 1010.4
20260501161728 15 190 3.2 11.3 0.15 2.16 2.16 1 1010.7
20260501161228 15 190 3.2 11.3 0.15 2.13 2.13 1 1010.8
20260501160725 15 190 4.8 11.3 0.20 2.13 2.13 1 1010.6
20260501160456 15 190 4.8 14.5 0.25 2.13 2.13 1 1010.5
20260501155723 15 190 4.8 14.5 0.25 2.11 2.13 1 1010.2
20260501155220 15 190 6.4 12.9 0.30 2.11 2.11 1 1010.2
20260501154718 15 190 4.8 12.9 0.36 2.08 2.08 1 1009.8
20260501154219 15 190 4.8 12.9 0.38 2.08 2.08 1 1010.6
20260501153720 15 190 4.8 14.5 0.43 2.08 2.08 1 1011.2
20260501153454 15 190 4.8 14.5 0.46 2.08 2.08 1 1011.0
20260501152717 15 190 4.8 12.9 0.46 2.06 2.06 1 1010.9
20260501152215 16 190 4.8 14.5 0.46 2.06 2.06 1 1010.7
20260501151716 16 190 4.8 14.5 0.41 2.01 2.01 1 1011.0
20260501151216 15 190 6.4 16.1 0.38 1.98 1.98 1 1011.4
20260501150715 15 190 6.4 16.1 0.33 1.93 1.93 1 1011.5
20260501150445 16 190 6.4 12.9 0.28 1.88 1.88 1 1011.6
20260501145945 16 190 6.4 17.7 0.28 1.85 1.85 1 1011.8
20260501145213 16 190 8.0 17.7 0.23 1.80 1.80 1 1011.9
20260501144944 16 190 8.0 17.7 0.15 1.73 1.73 1 1011.9
20260501144209 16 190 6.4 14.5 0.13 1.70 1.70 1 1011.7
20260501143708 16 190 4.8 11.3 0.08 1.65 1.68 1 1011.1
20260501143447 16 190 3.2 9.7 0.05 1.63 1.63 1 1010.3